Year,Month,Day,Hour,Minute,Value (Times are PST for temperature in C)
2009,10,30,00,00,8.30
2009,10,30,00,01,8.30
2009,10,30,00,02,8.20
2009,10,30,00,03,8.20
2009,10,30,00,04,8.20
2009,10,30,00,05,8.20
2009,10,30,00,06,8.20
2009,10,30,00,07,8.20
2009,10,30,00,08,8.20
2009,10,30,00,09,8.10
2009,10,30,00,10,8.10
2009,10,30,00,11,8.10
2009,10,30,00,12,8.10
2009,10,30,00,13,8.10
2009,10,30,00,14,8.10
2009,10,30,00,15,8.10
2009,10,30,00,16,8.10
2009,10,30,00,17,8.00
2009,10,30,00,18,8.00
2009,10,30,00,19,8.00
2009,10,30,00,20,8.00
2009,10,30,00,21,8.00
2009,10,30,00,22,8.00
2009,10,30,00,23,8.00
2009,10,30,00,24,7.90
2009,10,30,00,25,7.90
2009,10,30,00,26,7.90
2009,10,30,00,27,7.90
2009,10,30,00,28,7.90
2009,10,30,00,29,7.90
2009,10,30,00,30,7.90
2009,10,30,00,31,7.90
2009,10,30,00,32,7.90
2009,10,30,00,33,7.90
2009,10,30,00,34,7.90
2009,10,30,00,35,7.90
2009,10,30,00,36,7.90
2009,10,30,00,37,7.90
2009,10,30,00,38,7.90
2009,10,30,00,39,7.90
2009,10,30,00,40,7.90
2009,10,30,00,41,7.90
2009,10,30,00,42,7.90
2009,10,30,00,43,7.90
2009,10,30,00,44,7.90
2009,10,30,00,45,7.90
2009,10,30,00,46,7.90
2009,10,30,00,47,7.90
2009,10,30,00,48,7.90
2009,10,30,00,49,7.90
2009,10,30,00,50,7.90
2009,10,30,00,51,7.90
2009,10,30,00,52,7.90
2009,10,30,00,53,7.90
2009,10,30,00,54,7.90
2009,10,30,00,55,7.90
2009,10,30,00,56,8.00
2009,10,30,00,57,8.00
2009,10,30,00,58,8.00
2009,10,30,00,59,8.00
2009,10,30,01,00,8.00
2009,10,30,01,01,8.10
2009,10,30,01,02,8.10
2009,10,30,01,03,8.10
2009,10,30,01,04,8.10
2009,10,30,01,05,8.10
2009,10,30,01,06,8.10
2009,10,30,01,07,8.10
2009,10,30,01,08,8.10
2009,10,30,01,09,8.10
2009,10,30,01,10,8.10
2009,10,30,01,11,8.20
2009,10,30,01,12,8.20
2009,10,30,01,13,8.20
2009,10,30,01,14,8.20
2009,10,30,01,15,8.30
2009,10,30,01,16,8.30
2009,10,30,01,17,8.30
2009,10,30,01,18,8.40
2009,10,30,01,19,8.40
2009,10,30,01,20,8.40
2009,10,30,01,21,8.50
2009,10,30,01,22,8.50
2009,10,30,01,23,8.50
2009,10,30,01,24,8.40
2009,10,30,01,25,8.40
2009,10,30,01,26,8.40
2009,10,30,01,27,8.40
2009,10,30,01,28,8.30
2009,10,30,01,29,8.30
2009,10,30,01,30,8.30
2009,10,30,01,31,8.30
2009,10,30,01,32,8.30
2009,10,30,01,33,8.30
2009,10,30,01,34,8.30
2009,10,30,01,35,8.30
2009,10,30,01,36,8.40
2009,10,30,01,37,8.40
2009,10,30,01,38,8.40
2009,10,30,01,39,8.40
2009,10,30,01,40,8.40
2009,10,30,01,41,8.40
2009,10,30,01,42,8.40
2009,10,30,01,43,8.40
2009,10,30,01,44,8.40
2009,10,30,01,45,8.40
2009,10,30,01,46,8.50
2009,10,30,01,47,8.50
2009,10,30,01,48,8.60
2009,10,30,01,49,8.70
2009,10,30,01,50,8.80
2009,10,30,01,51,8.90
2009,10,30,01,52,9.00
2009,10,30,01,53,9.10
2009,10,30,01,54,9.20
2009,10,30,01,55,9.20
2009,10,30,01,56,9.30
2009,10,30,01,57,9.30
2009,10,30,01,58,9.30
2009,10,30,01,59,9.30
2009,10,30,02,00,9.30
2009,10,30,02,01,9.30
2009,10,30,02,02,9.20
2009,10,30,02,03,9.20
2009,10,30,02,04,9.10
2009,10,30,02,05,9.10
2009,10,30,02,06,9.10
2009,10,30,02,07,9.10
2009,10,30,02,08,9.20
2009,10,30,02,09,9.30
2009,10,30,02,10,9.40
2009,10,30,02,11,9.50
2009,10,30,02,12,9.50
2009,10,30,02,13,9.60
2009,10,30,02,14,9.70
2009,10,30,02,15,9.70
2009,10,30,02,16,9.70
2009,10,30,02,17,9.70
2009,10,30,02,18,9.70
2009,10,30,02,19,9.70
2009,10,30,02,20,9.60
2009,10,30,02,21,9.60
2009,10,30,02,22,9.60
2009,10,30,02,23,9.50
2009,10,30,02,24,9.50
2009,10,30,02,25,9.50
2009,10,30,02,26,9.50
2009,10,30,02,27,9.50
2009,10,30,02,28,9.60
2009,10,30,02,29,9.60
2009,10,30,02,30,9.60
2009,10,30,02,31,9.70
2009,10,30,02,32,9.80
2009,10,30,02,33,9.80
2009,10,30,02,34,9.90
2009,10,30,02,35,9.90
2009,10,30,02,36,10.00
2009,10,30,02,37,10.00
2009,10,30,02,38,10.10
2009,10,30,02,39,10.10
2009,10,30,02,40,10.20
2009,10,30,02,41,10.30
2009,10,30,02,42,10.30
2009,10,30,02,43,10.40
2009,10,30,02,44,10.40
2009,10,30,02,45,10.50
2009,10,30,02,46,10.50
2009,10,30,02,47,10.60
2009,10,30,02,48,10.60
2009,10,30,02,49,10.60
2009,10,30,02,50,10.70
2009,10,30,02,51,10.70
2009,10,30,02,52,10.70
2009,10,30,02,53,10.70
2009,10,30,02,54,10.70
2009,10,30,02,55,10.70
2009,10,30,02,56,10.70
2009,10,30,02,57,10.70
2009,10,30,02,58,10.70
2009,10,30,02,59,10.70
2009,10,30,03,00,10.70
2009,10,30,03,01,10.70
2009,10,30,03,02,10.70
2009,10,30,03,03,10.70
2009,10,30,03,04,10.70
2009,10,30,03,05,10.70
2009,10,30,03,06,10.70
2009,10,30,03,07,10.70
2009,10,30,03,08,10.70
2009,10,30,03,09,10.70
2009,10,30,03,10,10.70
2009,10,30,03,11,10.70
2009,10,30,03,12,10.70
2009,10,30,03,13,10.70
2009,10,30,03,14,10.70
2009,10,30,03,15,10.70
2009,10,30,03,16,10.70
2009,10,30,03,17,10.70
2009,10,30,03,18,10.70
2009,10,30,03,19,10.70
2009,10,30,03,20,10.70
2009,10,30,03,21,10.70
2009,10,30,03,22,10.70
2009,10,30,03,23,10.70
2009,10,30,03,24,10.70
2009,10,30,03,25,10.70
2009,10,30,03,26,10.70
2009,10,30,03,27,10.70
2009,10,30,03,28,10.70
2009,10,30,03,29,10.70
2009,10,30,03,30,10.70
2009,10,30,03,31,10.70
2009,10,30,03,32,10.70
2009,10,30,03,33,10.70
2009,10,30,03,34,10.70
2009,10,30,03,35,10.70
2009,10,30,03,36,10.70
2009,10,30,03,37,10.70
2009,10,30,03,38,10.70
2009,10,30,03,39,10.70
2009,10,30,03,40,10.70
2009,10,30,03,41,10.70
2009,10,30,03,42,10.70
2009,10,30,03,43,10.70
2009,10,30,03,44,10.70
2009,10,30,03,45,10.70
2009,10,30,03,46,10.70
2009,10,30,03,47,10.70
2009,10,30,03,48,10.70
2009,10,30,03,49,10.60
2009,10,30,03,50,10.60
2009,10,30,03,51,10.60
2009,10,30,03,52,10.60
2009,10,30,03,53,10.60
2009,10,30,03,54,10.50
2009,10,30,03,55,10.50
2009,10,30,03,56,10.50
2009,10,30,03,57,10.40
2009,10,30,03,58,10.40
2009,10,30,03,59,10.40
2009,10,30,04,00,10.40
2009,10,30,04,01,10.40
2009,10,30,04,02,10.50
2009,10,30,04,03,10.50
2009,10,30,04,04,10.50
2009,10,30,04,05,10.50
2009,10,30,04,06,10.50
2009,10,30,04,07,10.50
2009,10,30,04,08,10.40
2009,10,30,04,09,10.40
2009,10,30,04,10,10.40
2009,10,30,04,11,10.40
2009,10,30,04,12,10.40
2009,10,30,04,13,10.40
2009,10,30,04,14,10.50
2009,10,30,04,15,10.80
2009,10,30,04,16,11.00
2009,10,30,04,17,11.20
2009,10,30,04,18,11.40
2009,10,30,04,19,11.50
2009,10,30,04,20,11.70
2009,10,30,04,21,11.90
2009,10,30,04,22,12.10
2009,10,30,04,23,12.20
2009,10,30,04,24,12.30
2009,10,30,04,25,12.40
2009,10,30,04,26,12.60
2009,10,30,04,27,12.70
2009,10,30,04,28,12.90
2009,10,30,04,29,13.00
2009,10,30,04,30,13.10
2009,10,30,04,31,13.20
2009,10,30,04,32,13.30
2009,10,30,04,33,13.40
2009,10,30,04,34,13.50
2009,10,30,04,35,13.60
2009,10,30,04,36,13.60
2009,10,30,04,37,13.70
2009,10,30,04,38,13.70
2009,10,30,04,39,13.70
2009,10,30,04,40,13.70
2009,10,30,04,41,13.80
2009,10,30,04,42,13.80
2009,10,30,04,43,13.80
2009,10,30,04,44,13.80
2009,10,30,04,45,13.80
2009,10,30,04,46,13.80
2009,10,30,04,47,13.80
2009,10,30,04,48,13.80
2009,10,30,04,49,13.80
2009,10,30,04,50,13.80
2009,10,30,04,51,13.80
2009,10,30,04,52,13.80
2009,10,30,04,53,13.80
2009,10,30,04,54,13.80
2009,10,30,04,55,13.80
2009,10,30,04,56,13.80
2009,10,30,04,57,13.80
2009,10,30,04,58,13.80
2009,10,30,04,59,13.80
2009,10,30,05,00,13.80
2009,10,30,05,01,13.80
2009,10,30,05,02,13.80
2009,10,30,05,03,13.90
2009,10,30,05,04,13.90
2009,10,30,05,05,13.90
2009,10,30,05,06,13.90
2009,10,30,05,07,13.80
2009,10,30,05,08,13.80
2009,10,30,05,09,13.80
2009,10,30,05,10,13.80
2009,10,30,05,11,13.80
2009,10,30,05,12,13.80
2009,10,30,05,13,13.80
2009,10,30,05,14,13.90
2009,10,30,05,15,13.90
2009,10,30,05,16,13.90
2009,10,30,05,17,13.90
2009,10,30,05,18,14.00
2009,10,30,05,19,14.20
2009,10,30,05,20,14.40
2009,10,30,05,21,14.50
2009,10,30,05,22,14.60
2009,10,30,05,23,14.70
2009,10,30,05,24,14.80
2009,10,30,05,25,14.90
2009,10,30,05,26,14.90
2009,10,30,05,27,14.90
2009,10,30,05,28,15.00
2009,10,30,05,29,15.00
2009,10,30,05,30,15.00
2009,10,30,05,31,15.00
2009,10,30,05,32,15.00
2009,10,30,05,33,14.90
2009,10,30,05,34,14.90
2009,10,30,05,35,14.90
2009,10,30,05,36,14.90
2009,10,30,05,37,14.90
2009,10,30,05,38,14.90
2009,10,30,05,39,15.00
2009,10,30,05,40,15.00
2009,10,30,05,41,15.00
2009,10,30,05,42,15.00
2009,10,30,05,43,15.10
2009,10,30,05,44,15.20
2009,10,30,05,45,15.20
2009,10,30,05,46,15.20
2009,10,30,05,47,15.20
2009,10,30,05,48,15.20
2009,10,30,05,49,15.20
2009,10,30,05,50,15.10
2009,10,30,05,51,15.10
2009,10,30,05,52,15.10
2009,10,30,05,53,15.00
2009,10,30,05,54,15.00
2009,10,30,05,55,15.00
2009,10,30,05,56,14.90
2009,10,30,05,57,14.90
2009,10,30,05,58,14.80
2009,10,30,05,59,14.80
2009,10,30,06,00,14.80
2009,10,30,06,01,14.70
2009,10,30,06,02,14.70
2009,10,30,06,03,14.70
2009,10,30,06,04,14.60
2009,10,30,06,05,14.60
2009,10,30,06,06,14.60
2009,10,30,06,07,14.60
2009,10,30,06,08,14.60
2009,10,30,06,09,14.60
2009,10,30,06,10,14.50
2009,10,30,06,11,14.50
2009,10,30,06,12,14.50
2009,10,30,06,13,14.50
2009,10,30,06,14,14.50
2009,10,30,06,15,14.50
2009,10,30,06,16,14.40
2009,10,30,06,17,14.40
2009,10,30,06,18,14.40
2009,10,30,06,19,14.40
2009,10,30,06,20,14.40
2009,10,30,06,21,14.40
2009,10,30,06,22,14.40
2009,10,30,06,23,14.40
2009,10,30,06,24,14.30
2009,10,30,06,25,14.30
2009,10,30,06,26,14.30
2009,10,30,06,27,14.30
2009,10,30,06,28,14.30
2009,10,30,06,29,14.30
2009,10,30,06,30,14.30
2009,10,30,06,31,14.30
2009,10,30,06,32,14.30
2009,10,30,06,33,14.30
2009,10,30,06,34,14.30
2009,10,30,06,35,14.30
2009,10,30,06,36,14.30
2009,10,30,06,37,14.30
2009,10,30,06,38,14.30
2009,10,30,06,39,14.30
2009,10,30,06,40,14.20
2009,10,30,06,41,14.20
2009,10,30,06,42,14.20
2009,10,30,06,43,14.20
2009,10,30,06,44,14.20
2009,10,30,06,45,14.20
2009,10,30,06,46,14.20
2009,10,30,06,47,14.20
2009,10,30,06,48,14.20
2009,10,30,06,49,14.20
2009,10,30,06,50,14.20
2009,10,30,06,51,14.20
2009,10,30,06,52,14.20
2009,10,30,06,53,14.20
2009,10,30,06,54,14.30
2009,10,30,06,55,14.30
2009,10,30,06,56,14.30
2009,10,30,06,57,14.30
2009,10,30,06,58,14.40
2009,10,30,06,59,14.40
2009,10,30,07,00,14.40
2009,10,30,07,01,14.40
2009,10,30,07,02,14.40
2009,10,30,07,03,14.40
2009,10,30,07,04,14.40
2009,10,30,07,05,14.40
2009,10,30,07,06,14.40
2009,10,30,07,07,14.40
2009,10,30,07,08,14.40
2009,10,30,07,09,14.40
2009,10,30,07,10,14.40
2009,10,30,07,11,14.40
2009,10,30,07,12,14.40
2009,10,30,07,13,14.40
2009,10,30,07,14,14.40
2009,10,30,07,15,14.30
2009,10,30,07,16,14.30
2009,10,30,07,17,14.30
2009,10,30,07,18,14.30
2009,10,30,07,19,14.30
2009,10,30,07,20,14.20
2009,10,30,07,21,14.20
2009,10,30,07,22,14.20
2009,10,30,07,23,14.20
2009,10,30,07,24,14.20
2009,10,30,07,25,14.10
2009,10,30,07,26,14.10
2009,10,30,07,27,14.10
2009,10,30,07,28,14.10
2009,10,30,07,29,14.00
2009,10,30,07,30,14.00
2009,10,30,07,31,14.00
2009,10,30,07,32,14.00
2009,10,30,07,33,14.10
2009,10,30,07,34,14.00
2009,10,30,07,35,14.00
2009,10,30,07,36,14.00
2009,10,30,07,37,14.00
2009,10,30,07,38,14.00
2009,10,30,07,39,14.00
2009,10,30,07,40,14.00
2009,10,30,07,41,14.00
2009,10,30,07,42,14.00
2009,10,30,07,43,14.10
2009,10,30,07,44,14.10
2009,10,30,07,45,14.10
2009,10,30,07,46,14.10
2009,10,30,07,47,14.20
2009,10,30,07,48,14.20
2009,10,30,07,49,14.20
2009,10,30,07,50,14.20
2009,10,30,07,51,14.20
2009,10,30,07,52,14.20
2009,10,30,07,53,14.20
2009,10,30,07,54,14.20
2009,10,30,07,55,14.20
2009,10,30,07,56,14.20
2009,10,30,07,57,14.20
2009,10,30,07,58,14.20
2009,10,30,07,59,14.20
2009,10,30,08,00,14.20
2009,10,30,08,01,14.20
2009,10,30,08,02,14.20
2009,10,30,08,03,14.20
2009,10,30,08,04,14.20
2009,10,30,08,05,14.20
2009,10,30,08,06,14.20
2009,10,30,08,07,14.20
2009,10,30,08,08,14.20
2009,10,30,08,09,14.20
2009,10,30,08,10,14.20
2009,10,30,08,11,14.20
2009,10,30,08,12,14.20
2009,10,30,08,13,14.30
2009,10,30,08,14,14.30
2009,10,30,08,15,14.30
2009,10,30,08,16,14.30
2009,10,30,08,17,14.30
2009,10,30,08,18,14.30
2009,10,30,08,19,14.30
2009,10,30,08,20,14.30
2009,10,30,08,21,14.30
2009,10,30,08,22,14.20
2009,10,30,08,23,14.10
2009,10,30,08,24,14.10
2009,10,30,08,25,14.00
2009,10,30,08,26,14.00
2009,10,30,08,27,13.90
2009,10,30,08,28,13.90
2009,10,30,08,29,13.90
2009,10,30,08,30,14.00
2009,10,30,08,31,14.00
2009,10,30,08,32,14.10
2009,10,30,08,33,14.10
2009,10,30,08,34,14.20
2009,10,30,08,35,14.20
2009,10,30,08,36,14.20
2009,10,30,08,37,14.30
2009,10,30,08,38,14.30
2009,10,30,08,39,14.40
2009,10,30,08,40,14.40
2009,10,30,08,41,14.40
2009,10,30,08,42,14.50
2009,10,30,08,43,14.50
2009,10,30,08,44,14.50
2009,10,30,08,45,14.60
2009,10,30,08,46,14.60
2009,10,30,08,47,14.60
2009,10,30,08,48,14.60
2009,10,30,08,49,14.60
2009,10,30,08,50,14.60
2009,10,30,08,51,14.70
2009,10,30,08,52,14.70
2009,10,30,08,53,14.70
2009,10,30,08,54,14.70
2009,10,30,08,55,14.70
2009,10,30,08,56,14.70
2009,10,30,08,57,14.70
2009,10,30,08,58,14.70
2009,10,30,08,59,14.70
2009,10,30,09,00,14.70
2009,10,30,09,01,14.70
2009,10,30,09,02,14.70
2009,10,30,09,03,14.70
2009,10,30,09,04,14.70
2009,10,30,09,05,14.70
2009,10,30,09,06,14.70
2009,10,30,09,07,14.70
2009,10,30,09,08,14.60
2009,10,30,09,09,14.60
2009,10,30,09,10,14.60
2009,10,30,09,11,14.60
2009,10,30,09,12,14.60
2009,10,30,09,13,14.60
2009,10,30,09,14,14.60
2009,10,30,09,15,14.60
2009,10,30,09,16,14.60
2009,10,30,09,17,14.60
2009,10,30,09,18,14.60
2009,10,30,09,19,14.60
2009,10,30,09,20,14.60
2009,10,30,09,21,14.60
2009,10,30,09,22,14.60
2009,10,30,09,23,14.60
2009,10,30,09,24,14.60
2009,10,30,09,25,14.70
2009,10,30,09,26,14.70
2009,10,30,09,27,14.80
2009,10,30,09,28,14.80
2009,10,30,09,29,14.80
2009,10,30,09,30,14.80
2009,10,30,09,31,14.90
2009,10,30,09,32,14.90
2009,10,30,09,33,14.90
2009,10,30,09,34,14.90
2009,10,30,09,35,14.90
2009,10,30,09,36,14.90
2009,10,30,09,37,15.00
2009,10,30,09,38,15.00
2009,10,30,09,39,15.00
2009,10,30,09,40,15.10
2009,10,30,09,41,15.10
2009,10,30,09,42,15.10
2009,10,30,09,43,15.10
2009,10,30,09,44,15.10
2009,10,30,09,45,15.10
2009,10,30,09,46,15.20
2009,10,30,09,47,15.20
2009,10,30,09,48,15.20
2009,10,30,09,49,15.20
2009,10,30,09,50,15.20
2009,10,30,09,51,15.20
2009,10,30,09,52,15.20
2009,10,30,09,53,15.20
2009,10,30,09,54,15.20
2009,10,30,09,55,15.20
2009,10,30,09,56,15.20
2009,10,30,09,57,15.20
2009,10,30,09,58,15.20
2009,10,30,09,59,15.20
2009,10,30,10,00,15.20
2009,10,30,10,01,15.20
2009,10,30,10,02,15.20
2009,10,30,10,03,15.20
2009,10,30,10,04,15.20
2009,10,30,10,05,15.20
2009,10,30,10,06,15.20
2009,10,30,10,07,15.20
2009,10,30,10,08,15.20
2009,10,30,10,09,15.20
2009,10,30,10,10,15.20
2009,10,30,10,11,15.20
2009,10,30,10,12,15.20
2009,10,30,10,13,15.20
2009,10,30,10,14,15.20
2009,10,30,10,15,15.20
2009,10,30,10,16,15.20
2009,10,30,10,17,15.20
2009,10,30,10,18,15.20
2009,10,30,10,19,15.20
2009,10,30,10,20,15.20
2009,10,30,10,21,15.20
2009,10,30,10,22,15.20
2009,10,30,10,23,15.20
2009,10,30,10,24,15.20
2009,10,30,10,25,15.20
2009,10,30,10,26,15.20
2009,10,30,10,27,15.20
2009,10,30,10,28,15.20
2009,10,30,10,29,15.20
2009,10,30,10,30,15.20
2009,10,30,10,31,15.20
2009,10,30,10,32,15.20
2009,10,30,10,33,15.20
2009,10,30,10,34,15.20
2009,10,30,10,35,15.20
2009,10,30,10,36,15.10
2009,10,30,10,37,15.10
2009,10,30,10,38,15.10
2009,10,30,10,39,15.00
2009,10,30,10,40,15.00
2009,10,30,10,41,15.00
2009,10,30,10,42,15.00
2009,10,30,10,43,15.10
2009,10,30,10,44,15.10
2009,10,30,10,45,15.10
2009,10,30,10,46,15.10
2009,10,30,10,47,15.10
2009,10,30,10,48,15.10
2009,10,30,10,49,15.10
2009,10,30,10,50,15.00
2009,10,30,10,51,15.00
2009,10,30,10,52,15.10
2009,10,30,10,53,15.10
2009,10,30,10,54,15.10
2009,10,30,10,55,15.10
2009,10,30,10,56,15.10
2009,10,30,10,57,15.10
2009,10,30,10,58,15.20
2009,10,30,10,59,15.20
2009,10,30,11,00,15.20
2009,10,30,11,01,15.20
2009,10,30,11,02,15.20
2009,10,30,11,03,15.20
2009,10,30,11,04,15.20
2009,10,30,11,05,15.20
2009,10,30,11,06,15.30
2009,10,30,11,07,15.30
2009,10,30,11,08,15.30
2009,10,30,11,09,15.30
2009,10,30,11,10,15.20
2009,10,30,11,11,15.20
2009,10,30,11,12,15.20
2009,10,30,11,13,15.20
2009,10,30,11,14,15.20
2009,10,30,11,15,15.10
2009,10,30,11,16,15.10
2009,10,30,11,17,15.10
2009,10,30,11,18,15.10
2009,10,30,11,19,15.10
2009,10,30,11,20,15.10
2009,10,30,11,21,15.10
2009,10,30,11,22,15.10
2009,10,30,11,23,15.10
2009,10,30,11,24,15.10
2009,10,30,11,25,15.10
2009,10,30,11,26,15.10
2009,10,30,11,27,15.10
2009,10,30,11,28,15.10
2009,10,30,11,29,15.10
2009,10,30,11,30,15.10
2009,10,30,11,31,15.10
2009,10,30,11,32,15.10
2009,10,30,11,33,15.10
2009,10,30,11,34,15.10
2009,10,30,11,35,15.00
2009,10,30,11,36,15.00
2009,10,30,11,37,14.90
2009,10,30,11,38,14.90
2009,10,30,11,39,14.80
2009,10,30,11,40,14.80
2009,10,30,11,41,14.80
2009,10,30,11,42,14.70
2009,10,30,11,43,14.70
2009,10,30,11,44,14.70
2009,10,30,11,45,14.60
2009,10,30,11,46,14.60
2009,10,30,11,47,14.60
2009,10,30,11,48,14.60
2009,10,30,11,49,14.60
2009,10,30,11,50,14.60
2009,10,30,11,51,14.60
2009,10,30,11,52,14.60
2009,10,30,11,53,14.60
2009,10,30,11,54,14.60
2009,10,30,11,55,14.60
2009,10,30,11,56,14.60
2009,10,30,11,57,14.60
2009,10,30,11,58,14.60
2009,10,30,11,59,14.70
2009,10,30,12,00,14.70
2009,10,30,12,01,14.70
2009,10,30,12,02,14.70
2009,10,30,12,03,14.70
2009,10,30,12,04,14.80
2009,10,30,12,05,14.80
2009,10,30,12,06,14.80
2009,10,30,12,07,14.80
2009,10,30,12,08,14.80
2009,10,30,12,09,14.80
2009,10,30,12,10,14.80
2009,10,30,12,11,14.80
2009,10,30,12,12,14.90
2009,10,30,12,13,14.90
2009,10,30,12,14,14.90
2009,10,30,12,15,14.90
2009,10,30,12,16,14.90
2009,10,30,12,17,14.90
2009,10,30,12,18,14.90
2009,10,30,12,19,14.90
2009,10,30,12,20,14.90
2009,10,30,12,21,15.00
2009,10,30,12,22,15.00
2009,10,30,12,23,15.00
2009,10,30,12,24,15.00
2009,10,30,12,25,15.00
2009,10,30,12,26,15.00
2009,10,30,12,27,15.00
2009,10,30,12,28,15.10
2009,10,30,12,29,15.10
2009,10,30,12,30,15.00
2009,10,30,12,31,14.90
2009,10,30,12,32,14.90
2009,10,30,12,33,14.90
2009,10,30,12,34,14.90
2009,10,30,12,35,14.90
2009,10,30,12,36,14.80
2009,10,30,12,37,14.80
2009,10,30,12,38,14.80
2009,10,30,12,39,14.80
2009,10,30,12,40,14.80
2009,10,30,12,41,14.80
2009,10,30,12,42,14.80
2009,10,30,12,43,14.80
2009,10,30,12,44,14.80
2009,10,30,12,45,14.80
2009,10,30,12,46,14.80
2009,10,30,12,47,14.80
2009,10,30,12,48,14.80
2009,10,30,12,49,14.80
2009,10,30,12,50,14.90
2009,10,30,12,51,14.90
2009,10,30,12,52,14.90
2009,10,30,12,53,14.90
2009,10,30,12,54,15.00
2009,10,30,12,55,15.00
2009,10,30,12,56,15.00
2009,10,30,12,57,15.00
2009,10,30,12,58,15.10
2009,10,30,12,59,15.10
2009,10,30,13,00,15.10
2009,10,30,13,01,15.10
2009,10,30,13,02,15.10
2009,10,30,13,03,15.20
2009,10,30,13,04,15.20
2009,10,30,13,05,15.20
2009,10,30,13,06,15.30
2009,10,30,13,07,15.30
2009,10,30,13,08,15.30
2009,10,30,13,09,15.30
2009,10,30,13,10,15.30
2009,10,30,13,11,15.40
2009,10,30,13,12,15.40
2009,10,30,13,13,15.40
2009,10,30,13,14,15.30
2009,10,30,13,15,15.30
2009,10,30,13,16,15.40
2009,10,30,13,17,15.40
2009,10,30,13,18,15.40
2009,10,30,13,19,15.40
2009,10,30,13,20,15.40
2009,10,30,13,21,15.40
2009,10,30,13,22,15.40
2009,10,30,13,23,15.40
2009,10,30,13,24,15.40
2009,10,30,13,25,15.40
2009,10,30,13,26,15.40
2009,10,30,13,27,15.40
2009,10,30,13,28,15.40
2009,10,30,13,29,15.40
2009,10,30,13,30,15.30
2009,10,30,13,31,15.30
2009,10,30,13,32,15.30
2009,10,30,13,33,15.30
2009,10,30,13,34,15.20
2009,10,30,13,35,15.20
2009,10,30,13,36,15.20
2009,10,30,13,37,15.20
2009,10,30,13,38,15.20
2009,10,30,13,39,15.20
2009,10,30,13,40,15.20
2009,10,30,13,41,15.20
2009,10,30,13,42,15.20
2009,10,30,13,43,15.30
2009,10,30,13,44,15.30
2009,10,30,13,45,15.30
2009,10,30,13,46,15.40
2009,10,30,13,47,15.40
2009,10,30,13,48,15.50
2009,10,30,13,49,15.50
2009,10,30,13,50,15.60
2009,10,30,13,51,15.60
2009,10,30,13,52,15.70
2009,10,30,13,53,15.70
2009,10,30,13,54,15.70
2009,10,30,13,55,15.70
2009,10,30,13,56,15.70
2009,10,30,13,57,15.70
2009,10,30,13,58,15.70
2009,10,30,13,59,15.70
2009,10,30,14,00,15.80
2009,10,30,14,01,15.80
2009,10,30,14,02,15.80
2009,10,30,14,03,15.80
2009,10,30,14,04,15.80
2009,10,30,14,05,15.80
2009,10,30,14,06,15.80
2009,10,30,14,07,15.80
2009,10,30,14,08,15.80
2009,10,30,14,09,15.90
2009,10,30,14,10,15.90
2009,10,30,14,11,15.90
2009,10,30,14,12,15.90
2009,10,30,14,13,15.90
2009,10,30,14,14,16.00
2009,10,30,14,15,16.00
2009,10,30,14,16,16.00
2009,10,30,14,17,16.00
2009,10,30,14,18,16.00
2009,10,30,14,19,16.00
2009,10,30,14,20,16.10
2009,10,30,14,21,16.10
2009,10,30,14,22,16.10
2009,10,30,14,23,16.10
2009,10,30,14,24,16.10
2009,10,30,14,25,16.10
2009,10,30,14,26,16.10
2009,10,30,14,27,16.10
2009,10,30,14,28,16.10
2009,10,30,14,29,16.10
2009,10,30,14,30,16.10
2009,10,30,14,31,16.10
2009,10,30,14,32,16.10
2009,10,30,14,33,16.20
2009,10,30,14,34,16.20
2009,10,30,14,35,16.30
2009,10,30,14,36,16.30
2009,10,30,14,37,16.30
2009,10,30,14,38,16.40
2009,10,30,14,39,16.40
2009,10,30,14,40,16.50
2009,10,30,14,41,16.60
2009,10,30,14,42,16.50
2009,10,30,14,43,16.60
2009,10,30,14,44,16.60
2009,10,30,14,45,16.60
2009,10,30,14,46,16.60
2009,10,30,14,47,16.60
2009,10,30,14,48,16.60
2009,10,30,14,49,16.60
2009,10,30,14,50,16.70
2009,10,30,14,51,16.70
2009,10,30,14,52,16.70
2009,10,30,14,53,16.80
2009,10,30,14,54,16.80
2009,10,30,14,55,16.80
2009,10,30,14,56,16.90
2009,10,30,14,57,16.90
2009,10,30,14,58,16.90
2009,10,30,14,59,17.00
2009,10,30,15,00,17.00
2009,10,30,15,01,16.90
2009,10,30,15,02,16.90
2009,10,30,15,03,16.90
2009,10,30,15,04,17.00
2009,10,30,15,05,17.00
2009,10,30,15,06,17.00
2009,10,30,15,07,17.10
2009,10,30,15,08,17.10
2009,10,30,15,09,17.10
2009,10,30,15,10,17.20
2009,10,30,15,11,17.20
2009,10,30,15,12,17.20
2009,10,30,15,13,17.20
2009,10,30,15,14,17.20
2009,10,30,15,15,17.20
2009,10,30,15,16,17.10
2009,10,30,15,17,17.10
2009,10,30,15,18,17.10
2009,10,30,15,19,17.10
2009,10,30,15,20,17.00
2009,10,30,15,21,17.00
2009,10,30,15,22,17.10
2009,10,30,15,23,17.10
2009,10,30,15,24,17.10
2009,10,30,15,25,17.10
2009,10,30,15,26,17.10
2009,10,30,15,27,17.10
2009,10,30,15,28,17.10
2009,10,30,15,29,17.10
2009,10,30,15,30,17.10
2009,10,30,15,31,17.20
2009,10,30,15,32,17.20
2009,10,30,15,33,17.30
2009,10,30,15,34,17.30
2009,10,30,15,35,17.20
2009,10,30,15,36,17.20
2009,10,30,15,37,17.20
2009,10,30,15,38,17.20
2009,10,30,15,39,17.20
2009,10,30,15,40,17.20
2009,10,30,15,41,17.10
2009,10,30,15,42,17.00
2009,10,30,15,43,17.00
2009,10,30,15,44,16.90
2009,10,30,15,45,16.90
2009,10,30,15,46,16.90
2009,10,30,15,47,16.90
2009,10,30,15,48,16.90
2009,10,30,15,49,16.90
2009,10,30,15,50,16.80
2009,10,30,15,51,16.80
2009,10,30,15,52,16.80
2009,10,30,15,53,16.70
2009,10,30,15,54,16.60
2009,10,30,15,55,16.50
2009,10,30,15,56,16.50
2009,10,30,15,57,16.40
2009,10,30,15,58,16.40
2009,10,30,15,59,16.30
2009,10,30,16,00,16.30
2009,10,30,16,01,16.30
2009,10,30,16,02,16.40
2009,10,30,16,03,16.40
2009,10,30,16,04,16.40
2009,10,30,16,05,16.40
2009,10,30,16,06,16.40
2009,10,30,16,07,16.40
2009,10,30,16,08,16.40
2009,10,30,16,09,16.40
2009,10,30,16,10,16.40
2009,10,30,16,11,16.40
2009,10,30,16,12,16.40
2009,10,30,16,13,16.40
2009,10,30,16,14,16.50
2009,10,30,16,15,16.50
2009,10,30,16,16,16.50
2009,10,30,16,17,16.50
2009,10,30,16,18,16.50
2009,10,30,16,19,16.50
2009,10,30,16,20,16.50
2009,10,30,16,21,16.40
2009,10,30,16,22,16.40
2009,10,30,16,23,16.40
2009,10,30,16,24,16.30
2009,10,30,16,25,16.30
2009,10,30,16,26,16.30
2009,10,30,16,27,16.30
2009,10,30,16,28,16.30
2009,10,30,16,29,16.30
2009,10,30,16,30,16.20
2009,10,30,16,31,16.20
2009,10,30,16,32,16.20
2009,10,30,16,33,16.20
2009,10,30,16,34,16.10
2009,10,30,16,35,16.10
2009,10,30,16,36,16.10
2009,10,30,16,37,16.00
2009,10,30,16,38,16.00
2009,10,30,16,39,16.00
2009,10,30,16,40,15.90
2009,10,30,16,41,15.90
2009,10,30,16,42,15.90
2009,10,30,16,43,15.90
2009,10,30,16,44,15.90
2009,10,30,16,45,15.80
2009,10,30,16,46,15.80
2009,10,30,16,47,15.80
2009,10,30,16,48,15.80
2009,10,30,16,49,15.80
2009,10,30,16,50,15.70
2009,10,30,16,51,15.70
2009,10,30,16,52,15.60
2009,10,30,16,53,15.60
2009,10,30,16,54,15.50
2009,10,30,16,55,15.40
2009,10,30,16,56,15.40
2009,10,30,16,57,15.30
2009,10,30,16,58,15.20
2009,10,30,16,59,15.20
2009,10,30,17,00,15.10
2009,10,30,17,01,15.00
2009,10,30,17,02,14.90
2009,10,30,17,03,14.90
2009,10,30,17,04,14.80
2009,10,30,17,05,14.80
2009,10,30,17,06,14.70
2009,10,30,17,07,14.70
2009,10,30,17,08,14.60
2009,10,30,17,09,14.60
2009,10,30,17,10,14.60
2009,10,30,17,11,14.50
2009,10,30,17,12,14.50
2009,10,30,17,13,14.40
2009,10,30,17,14,14.40
2009,10,30,17,15,14.30
2009,10,30,17,16,14.30
2009,10,30,17,17,14.20
2009,10,30,17,18,14.20
2009,10,30,17,19,14.10
2009,10,30,17,20,14.10
2009,10,30,17,21,14.00
2009,10,30,17,22,14.00
2009,10,30,17,23,13.90
2009,10,30,17,24,13.80
2009,10,30,17,25,13.80
2009,10,30,17,26,13.70